Time,TemperatureF,DewpointF,PressureIn,WindDirection,WindDirectionDegrees,WindSpeedMPH,WindSpeedGustMPH,Humidity,HourlyPrecipIn,Conditions,Clouds,dailyrainin,SoftwareType,DateUTC
2013-09-01 00:00:00,68.8,68.2,29.76,SSE,168,0.0,0.0,98,0.00,,,0.06,Wunderground v.1.15,2013-09-01 04:00:00,
2013-09-01 00:05:00,68.6,68.0,29.77,SSE,168,0.0,0.0,98,0.00,,,0.00,Wunderground v.1.15,2013-09-01 04:05:00,
2013-09-01 00:15:00,68.5,67.9,29.77,NW,309,0.0,0.0,98,0.00,,,0.00,Wunderground v.1.15,2013-09-01 04:15:00,
2013-09-01 00:20:00,68.5,67.9,29.77,NW,309,0.0,0.0,98,0.00,,,0.00,Wunderground v.1.15,2013-09-01 04:20:00,
2013-09-01 00:25:00,68.5,67.9,29.77,NW,309,0.0,0.0,98,0.00,,,0.00,Wunderground v.1.15,2013-09-01 04:25:00,
2013-09-01 00:30:00,68.7,68.1,29.77,NW,309,0.0,0.0,98,0.00,,,0.00,Wunderground v.1.15,2013-09-01 04:30:00,
2013-09-01 00:35:00,68.7,68.1,29.77,NW,309,0.0,0.0,98,0.00,,,0.00,Wunderground v.1.15,2013-09-01 04:35:00,
2013-09-01 00:40:00,68.6,68.0,29.77,NW,309,0.0,0.0,98,0.00,,,0.00,Wunderground v.1.15,2013-09-01 04:40:00,
2013-09-01 00:50:00,68.8,68.2,29.77,NW,309,0.0,0.0,98,0.00,,,0.00,Wunderground v.1.15,2013-09-01 04:50:00,
2013-09-01 00:55:00,68.7,68.1,29.76,NW,309,0.0,0.0,98,0.00,,,0.00,Wunderground v.1.15,2013-09-01 04:55:00,
2013-09-01 01:00:00,68.6,68.0,29.76,NW,309,0.0,0.0,98,0.00,,,0.00,Wunderground v.1.15,2013-09-01 05:00:00,
2013-09-01 01:05:00,68.5,67.9,29.76,NW,309,0.0,0.0,98,0.00,,,0.00,Wunderground v.1.15,2013-09-01 05:05:00,
2013-09-01 01:15:00,68.3,67.7,29.76,NW,309,0.0,0.0,98,0.00,,,0.00,Wunderground v.1.15,2013-09-01 05:15:00,
2013-09-01 01:20:00,68.3,67.7,29.76,NW,309,0.0,0.0,98,0.00,,,0.00,Wunderground v.1.15,2013-09-01 05:20:00,
2013-09-01 01:30:00,68.2,67.6,29.76,NW,309,0.0,0.0,98,0.00,,,0.00,Wunderground v.1.15,2013-09-01 05:30:00,
2013-09-01 01:35:00,68.3,67.7,29.76,NW,307,0.0,0.0,98,0.00,,,0.00,Wunderground v.1.15,2013-09-01 05:35:00,
2013-09-01 01:45:00,69.0,68.7,29.76,NW,304,0.0,1.0,99,0.00,,,0.00,Wunderground v.1.15,2013-09-01 05:45:00,
2013-09-01 01:50:00,69.2,68.9,29.76,SSW,198,0.0,0.0,99,0.00,,,0.00,Wunderground v.1.15,2013-09-01 05:50:00,
2013-09-01 02:00:00,69.4,68.8,29.76,SW,215,0.0,0.0,98,0.00,,,0.00,Wunderground v.1.15,2013-09-01 06:00:00,
2013-09-01 02:05:00,69.5,68.6,29.76,SW,215,0.0,0.0,97,0.00,,,0.00,Wunderground v.1.15,2013-09-01 06:05:00,
2013-09-01 02:15:00,69.8,68.6,29.76,SSW,207,0.0,1.0,96,0.00,,,0.00,Wunderground v.1.15,2013-09-01 06:15:00,
2013-09-01 02:20:00,69.9,68.7,29.76,SSW,197,0.0,0.0,96,0.00,,,0.00,Wunderground v.1.15,2013-09-01 06:20:00,
2013-09-01 02:30:00,70.4,68.9,29.76,South,184,1.0,1.0,95,0.00,,,0.00,Wunderground v.1.15,2013-09-01 06:30:00,
2013-09-01 02:35:00,70.5,68.7,29.77,South,184,1.0,1.0,94,0.00,,,0.00,Wunderground v.1.15,2013-09-01 06:35:00,
2013-09-01 02:45:00,70.6,68.5,29.77,South,184,0.0,0.0,93,0.00,,,0.00,Wunderground v.1.15,2013-09-01 06:45:00,
2013-09-01 02:50:00,70.4,68.3,29.76,South,183,0.0,0.0,93,0.00,,,0.00,Wunderground v.1.15,2013-09-01 06:50:00,
2013-09-01 03:00:00,70.1,68.3,29.76,South,176,0.0,0.0,94,0.00,,,0.00,Wunderground v.1.15,2013-09-01 07:00:00,
2013-09-01 03:05:00,69.9,68.1,29.76,South,176,0.0,0.0,94,0.00,,,0.00,Wunderground v.1.15,2013-09-01 07:05:00,
2013-09-01 03:15:00,69.5,67.7,29.76,South,176,0.0,0.0,94,0.00,,,0.00,Wunderground v.1.15,2013-09-01 07:15:00,
2013-09-01 03:20:00,69.3,67.5,29.76,South,176,0.0,0.0,94,0.00,,,0.00,Wunderground v.1.15,2013-09-01 07:20:00,
2013-09-01 03:25:00,69.1,67.6,29.75,South,176,0.0,0.0,95,0.00,,,0.00,Wunderground v.1.15,2013-09-01 07:25:00,
2013-09-01 03:35:00,68.6,67.1,29.76,South,176,0.0,1.0,95,0.00,,,0.00,Wunderground v.1.15,2013-09-01 07:35:00,
2013-09-01 03:40:00,68.7,67.5,29.76,SW,227,0.0,4.0,96,0.00,,,0.00,Wunderground v.1.15,2013-09-01 07:40:00,
2013-09-01 03:50:00,68.9,67.7,29.76,South,185,1.0,1.0,96,0.00,,,0.00,Wunderground v.1.15,2013-09-01 07:50:00,
2013-09-01 03:55:00,69.0,67.8,29.76,South,187,0.0,1.0,96,0.00,,,0.00,Wunderground v.1.15,2013-09-01 07:55:00,
2013-09-01 04:00:00,69.2,68.0,29.77,South,183,0.0,1.0,96,0.00,,,0.00,Wunderground v.1.15,2013-09-01 08:00:00,
2013-09-01 04:05:00,69.4,68.2,29.77,SSW,192,1.0,3.0,96,0.00,,,0.00,Wunderground v.1.15,2013-09-01 08:05:00,
2013-09-01 04:15:00,69.7,68.2,29.78,SW,221,1.0,1.0,95,0.00,,,0.00,Wunderground v.1.15,2013-09-01 08:15:00,
2013-09-01 04:20:00,70.0,68.5,29.78,South,187,1.0,1.0,95,0.00,,,0.00,Wunderground v.1.15,2013-09-01 08:20:00,
2013-09-01 04:25:00,70.1,68.3,29.78,South,180,0.0,1.0,94,0.00,,,0.00,Wunderground v.1.15,2013-09-01 08:25:00,
2013-09-01 04:30:00,70.1,68.3,29.78,SSW,209,0.0,0.0,94,0.00,,,0.00,Wunderground v.1.15,2013-09-01 08:30:00,
2013-09-01 04:40:00,70.2,68.1,29.78,SSW,207,1.0,1.0,93,0.00,,,0.00,Wunderground v.1.15,2013-09-01 08:40:00,
2013-09-01 04:45:00,70.3,68.2,29.79,South,189,1.0,1.0,93,0.00,,,0.00,Wunderground v.1.15,2013-09-01 08:45:00,
2013-09-01 04:55:00,70.2,68.1,29.79,South,188,0.0,1.0,93,0.00,,,0.00,Wunderground v.1.15,2013-09-01 08:55:00,
2013-09-01 05:00:00,70.2,68.1,29.79,South,188,0.0,0.0,93,0.00,,,0.00,Wunderground v.1.15,2013-09-01 09:00:00,
2013-09-01 05:05:00,70.2,68.1,29.79,South,188,0.0,0.0,93,0.00,,,0.00,Wunderground v.1.15,2013-09-01 09:05:00,
2013-09-01 05:15:00,69.9,67.8,29.79,South,188,0.0,0.0,93,0.00,,,0.00,Wunderground v.1.15,2013-09-01 09:15:00,
2013-09-01 05:20:00,69.7,67.9,29.79,South,188,0.0,0.0,94,0.00,,,0.00,Wunderground v.1.15,2013-09-01 09:20:00,
2013-09-01 05:30:00,69.3,67.5,29.79,South,188,0.0,0.0,94,0.00,,,0.00,Wunderground v.1.15,2013-09-01 09:30:00,
2013-09-01 05:35:00,69.1,67.3,29.78,South,188,0.0,0.0,94,0.00,,,0.00,Wunderground v.1.15,2013-09-01 09:35:00,
2013-09-01 05:40:00,68.9,67.4,29.78,South,188,0.0,0.0,95,0.00,,,0.00,Wunderground v.1.15,2013-09-01 09:40:00,
2013-09-01 05:50:00,68.3,66.8,29.79,NNE,13,0.0,2.0,95,0.00,,,0.00,Wunderground v.1.15,2013-09-01 09:50:00,
2013-09-01 05:55:00,68.0,66.5,29.79,NNE,13,0.0,2.0,95,0.00,,,0.00,Wunderground v.1.15,2013-09-01 09:55:00,
2013-09-01 06:05:00,67.6,66.4,29.79,NNE,13,0.0,0.0,96,0.00,,,0.00,Wunderground v.1.15,2013-09-01 10:05:00,
2013-09-01 06:15:00,67.5,66.3,29.79,NNE,13,0.0,0.0,96,0.00,,,0.00,Wunderground v.1.15,2013-09-01 10:15:00,
2013-09-01 06:20:00,67.4,66.2,29.79,NNE,13,0.0,0.0,96,0.00,,,0.00,Wunderground v.1.15,2013-09-01 10:20:00,
2013-09-01 06:25:00,67.2,66.0,29.79,NNE,13,0.0,0.0,96,0.00,,,0.00,Wunderground v.1.15,2013-09-01 10:25:00,
2013-09-01 06:30:00,67.2,66.3,29.79,NNE,13,0.0,0.0,97,0.00,,,0.00,Wunderground v.1.15,2013-09-01 10:30:00,
2013-09-01 06:40:00,67.3,66.4,29.80,NNE,13,0.0,0.0,97,0.00,,,0.00,Wunderground v.1.15,2013-09-01 10:40:00,
2013-09-01 06:45:00,67.6,66.7,29.80,NNE,13,0.0,0.0,97,0.00,,,0.00,Wunderground v.1.15,2013-09-01 10:45:00,
2013-09-01 06:55:00,67.9,67.0,29.80,NNE,13,0.0,0.0,97,0.00,,,0.00,Wunderground v.1.15,2013-09-01 10:55:00,
2013-09-01 07:00:00,68.0,67.1,29.81,NNE,13,0.0,0.0,97,0.00,,,0.00,Wunderground v.1.15,2013-09-01 11:00:00,
2013-09-01 07:05:00,68.0,67.1,29.81,NNE,13,0.0,0.0,97,0.00,,,0.00,Wunderground v.1.15,2013-09-01 11:05:00,
2013-09-01 07:15:00,68.2,67.3,29.82,NNE,13,0.0,0.0,97,0.00,,,0.00,Wunderground v.1.15,2013-09-01 11:15:00,
2013-09-01 07:20:00,68.3,67.4,29.82,NNE,13,0.0,0.0,97,0.00,,,0.00,Wunderground v.1.15,2013-09-01 11:20:00,
2013-09-01 07:30:00,68.6,67.7,29.82,NNE,13,0.0,0.0,97,0.00,,,0.00,Wunderground v.1.15,2013-09-01 11:30:00,
2013-09-01 07:35:00,68.8,67.9,29.82,NNE,13,0.0,0.0,97,0.00,,,0.00,Wunderground v.1.15,2013-09-01 11:35:00,
2013-09-01 07:45:00,69.5,68.6,29.82,SE,142,0.0,0.0,97,0.00,,,0.00,Wunderground v.1.15,2013-09-01 11:45:00,
2013-09-01 07:50:00,69.7,68.8,29.82,SE,142,0.0,0.0,97,0.00,,,0.00,Wunderground v.1.15,2013-09-01 11:50:00,
2013-09-01 07:55:00,70.0,68.8,29.82,SSE,148,0.0,0.0,96,0.00,,,0.00,Wunderground v.1.15,2013-09-01 11:55:00,
2013-09-01 08:05:00,70.7,69.2,29.83,South,178,0.0,2.0,95,0.00,,,0.00,Wunderground v.1.15,2013-09-01 12:05:00,
2013-09-01 08:15:00,71.3,69.5,29.83,SSW,192,1.0,1.0,94,0.00,,,0.00,Wunderground v.1.15,2013-09-01 12:15:00,
2013-09-01 08:20:00,71.6,69.8,29.83,South,190,0.0,0.0,94,0.00,,,0.00,Wunderground v.1.15,2013-09-01 12:20:00,
2013-09-01 08:25:00,72.2,70.4,29.83,South,190,0.0,0.0,94,0.00,,,0.00,Wunderground v.1.15,2013-09-01 12:25:00,
2013-09-01 08:35:00,73.4,70.3,29.83,South,186,0.0,1.0,90,0.00,,,0.00,Wunderground v.1.15,2013-09-01 12:35:00,
2013-09-01 08:40:00,74.0,70.2,29.83,NNE,13,0.0,0.0,88,0.00,,,0.00,Wunderground v.1.15,2013-09-01 12:40:00,
2013-09-01 08:45:00,74.4,70.3,29.83,SSW,200,1.0,1.0,87,0.00,,,0.00,Wunderground v.1.15,2013-09-01 12:45:00,
2013-09-01 08:55:00,75.1,70.6,29.83,South,177,1.0,1.0,86,0.00,,,0.00,Wunderground v.1.15,2013-09-01 12:55:00,
2013-09-01 09:00:00,75.6,70.8,29.83,WNW,298,0.0,0.0,85,0.00,,,0.00,Wunderground v.1.15,2013-09-01 13:00:00,
2013-09-01 09:05:00,76.1,70.6,29.83,North,11,0.0,0.0,83,0.00,,,0.00,Wunderground v.1.15,2013-09-01 13:05:00,
2013-09-01 09:15:00,76.5,70.9,29.83,South,184,0.0,0.0,83,0.00,,,0.00,Wunderground v.1.15,2013-09-01 13:15:00,
2013-09-01 09:25:00,77.2,70.2,29.83,West,260,0.0,0.0,79,0.00,,,0.00,Wunderground v.1.15,2013-09-01 13:25:00,
2013-09-01 09:30:00,77.2,70.5,29.83,West,279,1.0,1.0,80,0.00,,,0.00,Wunderground v.1.15,2013-09-01 13:30:00,
2013-09-01 09:40:00,76.9,69.5,29.83,NNE,12,1.0,1.0,78,0.00,,,0.00,Wunderground v.1.15,2013-09-01 13:40:00,
2013-09-01 09:45:00,76.5,69.5,29.83,NNE,28,1.0,1.0,79,0.00,,,0.00,Wunderground v.1.15,2013-09-01 13:45:00,
2013-09-01 09:50:00,76.6,70.3,29.82,NE,41,1.0,2.0,81,0.00,,,0.00,Wunderground v.1.15,2013-09-01 13:50:00,
2013-09-01 10:00:00,77.5,70.5,29.83,North,9,1.0,1.0,79,0.00,,,0.00,Wunderground v.1.15,2013-09-01 14:00:00,
2013-09-01 10:05:00,78.0,70.2,29.83,NNE,13,1.0,3.0,77,0.00,,,0.00,Wunderground v.1.15,2013-09-01 14:05:00,
2013-09-01 10:15:00,77.9,69.3,29.83,North,355,1.0,2.0,75,0.00,,,0.00,Wunderground v.1.15,2013-09-01 14:15:00,
2013-09-01 10:25:00,78.7,71.3,29.83,South,191,1.0,2.0,78,0.00,,,0.00,Wunderground v.1.15,2013-09-01 14:25:00,
2013-09-01 10:30:00,79.2,71.0,29.83,SSW,192,1.0,1.0,76,0.00,,,0.00,Wunderground v.1.15,2013-09-01 14:30:00,
2013-09-01 10:40:00,79.5,70.5,29.83,NNW,329,1.0,1.0,74,0.00,,,0.00,Wunderground v.1.15,2013-09-01 14:40:00,
2013-09-01 10:45:00,79.4,71.6,29.83,NW,309,0.0,1.0,77,0.00,,,0.00,Wunderground v.1.15,2013-09-01 14:45:00,
2013-09-01 10:50:00,79.5,70.9,29.84,NW,319,0.0,0.0,75,0.00,,,0.00,Wunderground v.1.15,2013-09-01 14:50:00,
2013-09-01 11:00:00,78.8,70.6,29.84,WNW,282,0.0,0.0,76,0.00,,,0.00,Wunderground v.1.15,2013-09-01 15:00:00,
2013-09-01 11:05:00,78.6,70.4,29.84,West,281,0.0,0.0,76,0.00,,,0.00,Wunderground v.1.15,2013-09-01 15:05:00,
2013-09-01 11:15:00,78.0,69.0,29.83,NW,324,0.0,0.0,74,0.00,,,0.00,Wunderground v.1.15,2013-09-01 15:15:00,
2013-09-01 11:20:00,78.0,69.8,29.84,NW,325,0.0,0.0,76,0.00,,,0.00,Wunderground v.1.15,2013-09-01 15:20:00,
2013-09-01 11:30:00,77.9,70.5,29.83,NW,325,0.0,0.0,78,0.00,,,0.00,Wunderground v.1.15,2013-09-01 15:30:00,
2013-09-01 11:35:00,78.0,70.6,29.83,NW,325,0.0,0.0,78,0.00,,,0.00,Wunderground v.1.15,2013-09-01 15:35:00,
2013-09-01 11:40:00,78.4,70.6,29.83,NW,325,0.0,0.0,77,0.00,,,0.00,Wunderground v.1.15,2013-09-01 15:40:00,
2013-09-01 11:50:00,79.5,70.5,29.82,SSW,208,1.0,3.0,74,0.00,,,0.00,Wunderground v.1.15,2013-09-01 15:50:00,
2013-09-01 11:55:00,79.6,70.2,29.83,SSW,202,1.0,3.0,73,0.00,,,0.00,Wunderground v.1.15,2013-09-01 15:55:00,
2013-09-01 12:05:00,79.7,69.5,29.83,NNW,328,1.0,2.0,71,0.00,,,0.00,Wunderground v.1.15,2013-09-01 16:05:00,
2013-09-01 12:15:00,79.6,70.6,29.83,South,176,0.0,1.0,74,0.00,,,0.00,Wunderground v.1.15,2013-09-01 16:15:00,
2013-09-01 12:25:00,79.1,71.3,29.82,South,178,0.0,1.0,77,0.00,,,0.00,Wunderground v.1.15,2013-09-01 16:25:00,
2013-09-01 12:30:00,79.1,70.9,29.82,South,178,0.0,0.0,76,0.00,,,0.00,Wunderground v.1.15,2013-09-01 16:30:00,
2013-09-01 12:40:00,79.6,70.6,29.82,SSW,198,0.0,0.0,74,0.00,,,0.00,Wunderground v.1.15,2013-09-01 16:40:00,
2013-09-01 12:45:00,79.5,70.1,29.82,South,179,0.0,0.0,73,0.00,,,0.00,Wunderground v.1.15,2013-09-01 16:45:00,
2013-09-01 12:50:00,79.5,70.5,29.82,South,179,0.0,1.0,74,0.00,,,0.00,Wunderground v.1.15,2013-09-01 16:50:00,
2013-09-01 13:00:00,79.8,71.2,29.82,South,190,0.0,1.0,75,0.00,,,0.00,Wunderground v.1.15,2013-09-01 17:00:00,
2013-09-01 13:05:00,79.6,71.0,29.82,South,190,0.0,1.0,75,0.00,,,0.00,Wunderground v.1.15,2013-09-01 17:05:00,
2013-09-01 13:15:00,79.5,70.9,29.82,SSW,194,0.0,1.0,75,0.00,,,0.00,Wunderground v.1.15,2013-09-01 17:15:00,
2013-09-01 13:20:00,79.5,71.3,29.82,SSE,167,0.0,0.0,76,0.00,,,0.00,Wunderground v.1.15,2013-09-01 17:20:00,
2013-09-01 13:30:00,79.9,70.9,29.82,South,169,0.0,0.0,74,0.00,,,0.00,Wunderground v.1.15,2013-09-01 17:30:00,
2013-09-01 13:35:00,80.0,71.0,29.82,South,178,0.0,0.0,74,0.00,,,0.00,Wunderground v.1.15,2013-09-01 17:35:00,
2013-09-01 13:40:00,80.3,72.0,29.82,South,178,0.0,0.0,76,0.00,,,0.00,Wunderground v.1.15,2013-09-01 17:40:00,
2013-09-01 13:50:00,80.9,71.8,29.81,South,183,0.0,2.0,74,0.00,,,0.00,Wunderground v.1.15,2013-09-01 17:50:00,
2013-09-01 13:55:00,81.1,71.2,29.81,South,188,1.0,2.0,72,0.00,,,0.00,Wunderground v.1.15,2013-09-01 17:55:00,
2013-09-01 14:05:00,82.1,71.8,29.81,SW,217,0.0,1.0,71,0.00,,,0.00,Wunderground v.1.15,2013-09-01 18:05:00,
2013-09-01 14:15:00,82.1,72.2,29.81,SW,227,0.0,0.0,72,0.00,,,0.00,Wunderground v.1.15,2013-09-01 18:15:00,
2013-09-01 14:25:00,81.5,70.3,29.81,SSW,203,0.0,0.0,69,0.00,,,0.00,Wunderground v.1.15,2013-09-01 18:25:00,
2013-09-01 14:30:00,81.5,70.3,29.81,SSW,203,0.0,0.0,69,0.00,,,0.00,Wunderground v.1.15,2013-09-01 18:30:00,
2013-09-01 14:40:00,81.6,72.5,29.81,SSW,203,0.0,0.0,74,0.00,,,0.00,Wunderground v.1.15,2013-09-01 18:40:00,
2013-09-01 14:45:00,81.4,71.1,29.81,SSW,203,0.0,0.0,71,0.00,,,0.00,Wunderground v.1.15,2013-09-01 18:45:00,
2013-09-01 14:50:00,81.6,70.9,29.81,SSW,203,0.0,0.0,70,0.00,,,0.00,Wunderground v.1.15,2013-09-01 18:50:00,
2013-09-01 15:00:00,81.6,70.4,29.81,SSW,203,0.0,0.0,69,0.00,,,0.00,Wunderground v.1.15,2013-09-01 19:00:00,
2013-09-01 15:05:00,81.8,71.1,29.81,SSE,153,0.0,0.0,70,0.00,,,0.00,Wunderground v.1.15,2013-09-01 19:05:00,
2013-09-01 15:15:00,81.2,70.5,29.81,SSE,161,1.0,1.0,70,0.00,,,0.00,Wunderground v.1.15,2013-09-01 19:15:00,
2013-09-01 15:20:00,81.3,71.8,29.81,SSE,163,0.0,0.0,73,0.00,,,0.00,Wunderground v.1.15,2013-09-01 19:20:00,
2013-09-01 15:25:00,81.5,70.8,29.81,ENE,76,0.0,0.0,70,0.00,,,0.00,Wunderground v.1.15,2013-09-01 19:25:00,
2013-09-01 15:35:00,81.1,70.4,29.81,SSE,150,0.0,0.0,70,0.00,,,0.00,Wunderground v.1.15,2013-09-01 19:35:00,
2013-09-01 15:40:00,80.2,71.2,29.81,SSE,152,1.0,1.0,74,0.00,,,0.00,Wunderground v.1.15,2013-09-01 19:40:00,
2013-09-01 15:50:00,78.4,71.3,29.81,SSW,194,1.0,1.0,79,0.00,,,0.00,Wunderground v.1.15,2013-09-01 19:50:00,
2013-09-01 15:55:00,77.9,71.6,29.81,SSW,194,0.0,1.0,81,0.00,,,0.00,Wunderground v.1.15,2013-09-01 19:55:00,
2013-09-01 16:05:00,77.5,71.2,29.81,SSW,200,1.0,1.0,81,0.00,,,0.00,Wunderground v.1.15,2013-09-01 20:05:00,
2013-09-01 16:15:00,78.3,71.6,29.81,South,171,1.0,4.0,80,0.00,,,0.00,Wunderground v.1.15,2013-09-01 20:15:00,
2013-09-01 16:25:00,78.0,71.3,29.81,SSW,194,2.0,2.0,80,0.00,,,0.00,Wunderground v.1.15,2013-09-01 20:25:00,
2013-09-01 16:35:00,77.9,72.0,29.81,SW,219,0.0,1.0,82,0.00,,,0.00,Wunderground v.1.15,2013-09-01 20:35:00,
2013-09-01 16:40:00,78.0,72.4,29.81,SW,219,0.0,0.0,83,0.00,,,0.00,Wunderground v.1.15,2013-09-01 20:40:00,
2013-09-01 16:50:00,78.1,72.2,29.81,SW,219,0.0,0.0,82,0.00,,,0.00,Wunderground v.1.15,2013-09-01 20:50:00,
2013-09-01 17:00:00,78.7,72.4,29.80,SW,219,0.0,0.0,81,0.00,,,0.00,Wunderground v.1.15,2013-09-01 21:00:00,
2013-09-01 17:05:00,79.5,72.4,29.80,SW,219,0.0,0.0,79,0.00,,,0.00,Wunderground v.1.15,2013-09-01 21:05:00,
2013-09-01 17:15:00,80.2,73.1,29.80,SW,219,0.0,0.0,79,0.00,,,0.00,Wunderground v.1.15,2013-09-01 21:15:00,
2013-09-01 17:20:00,80.3,72.4,29.80,SW,219,0.0,0.0,77,0.00,,,0.00,Wunderground v.1.15,2013-09-01 21:20:00,
2013-09-01 17:30:00,80.3,72.0,29.81,SW,221,0.0,0.0,76,0.00,,,0.00,Wunderground v.1.15,2013-09-01 21:30:00,
2013-09-01 17:40:00,79.8,71.9,29.81,SW,221,0.0,0.0,77,0.00,,,0.00,Wunderground v.1.15,2013-09-01 21:40:00,
2013-09-01 17:45:00,79.6,72.5,29.81,SW,221,0.0,0.0,79,0.00,,,0.00,Wunderground v.1.15,2013-09-01 21:45:00,
2013-09-01 17:50:00,79.4,72.3,29.81,SW,221,0.0,0.0,79,0.00,,,0.00,Wunderground v.1.15,2013-09-01 21:50:00,
2013-09-01 18:00:00,79.4,72.7,29.81,SW,221,0.0,0.0,80,0.00,,,0.00,Wunderground v.1.15,2013-09-01 22:00:00,
2013-09-01 18:05:00,79.4,73.4,29.81,SW,221,0.0,0.0,82,0.00,,,0.00,Wunderground v.1.15,2013-09-01 22:05:00,
2013-09-01 18:15:00,79.1,74.2,29.81,SW,221,0.0,0.0,85,0.00,,,0.00,Wunderground v.1.15,2013-09-01 22:15:00,
2013-09-01 18:20:00,79.0,74.1,29.80,SW,221,0.0,0.0,85,0.00,,,0.00,Wunderground v.1.15,2013-09-01 22:20:00,
2013-09-01 18:30:00,78.7,73.1,29.80,SW,221,0.0,0.0,83,0.00,,,0.00,Wunderground v.1.15,2013-09-01 22:30:00,
2013-09-01 18:40:00,78.4,73.5,29.80,SW,221,0.0,0.0,85,0.00,,,0.00,Wunderground v.1.15,2013-09-01 22:40:00,
2013-09-01 18:45:00,78.0,73.1,29.80,SW,221,0.0,0.0,85,0.00,,,0.00,Wunderground v.1.15,2013-09-01 22:45:00,
2013-09-01 18:55:00,77.2,73.4,29.81,SW,221,0.0,0.0,88,0.00,,,0.00,Wunderground v.1.15,2013-09-01 22:55:00,
2013-09-01 19:00:00,76.9,73.1,29.81,SW,221,0.0,0.0,88,0.00,,,0.00,Wunderground v.1.15,2013-09-01 23:00:00,
2013-09-01 19:05:00,76.5,73.3,29.82,SW,221,0.0,0.0,90,0.00,,,0.00,Wunderground v.1.15,2013-09-01 23:05:00,
2013-09-01 19:10:00,76.1,73.0,29.82,SW,221,0.0,0.0,90,0.00,,,0.00,Wunderground v.1.15,2013-09-01 23:10:00,
2013-09-01 19:20:00,75.6,72.8,29.81,SW,221,0.0,0.0,91,0.00,,,0.00,Wunderground v.1.15,2013-09-01 23:20:00,
2013-09-01 19:25:00,75.2,72.4,29.81,SW,221,0.0,0.0,91,0.00,,,0.00,Wunderground v.1.15,2013-09-01 23:25:00,
2013-09-01 19:35:00,74.8,72.3,29.82,SW,221,0.0,0.0,92,0.00,,,0.00,Wunderground v.1.15,2013-09-01 23:35:00,
2013-09-01 19:40:00,74.7,72.5,29.82,SW,221,0.0,0.0,93,0.00,,,0.00,Wunderground v.1.15,2013-09-01 23:40:00,
2013-09-01 19:50:00,74.3,72.1,29.81,SW,221,0.0,0.0,93,0.00,,,0.00,Wunderground v.1.15,2013-09-01 23:50:00,
2013-09-01 20:00:00,73.7,71.5,29.81,SW,221,0.0,0.0,93,0.00,,,0.00,Wunderground v.1.15,2013-09-02 00:00:00,
2013-09-01 20:05:00,73.4,71.6,29.82,SW,221,0.0,0.0,94,0.00,,,0.00,Wunderground v.1.15,2013-09-02 00:05:00,
2013-09-01 20:15:00,73.5,72.0,29.82,SSW,211,0.0,0.0,95,0.00,,,0.00,Wunderground v.1.15,2013-09-02 00:15:00,
2013-09-01 20:20:00,73.5,72.0,29.82,SSW,205,0.0,2.0,95,0.00,,,0.00,Wunderground v.1.15,2013-09-02 00:20:00,
2013-09-01 20:25:00,73.4,71.6,29.82,SW,215,1.0,2.0,94,0.00,,,0.00,Wunderground v.1.15,2013-09-02 00:25:00,
2013-09-01 20:30:00,73.3,71.2,29.83,SE,135,1.0,1.0,93,0.00,,,0.00,Wunderground v.1.15,2013-09-02 00:30:00,
2013-09-01 20:40:00,73.2,70.7,29.84,SSE,164,1.0,1.0,92,0.00,,,0.00,Wunderground v.1.15,2013-09-02 00:40:00,
2013-09-01 20:45:00,73.1,70.3,29.84,SSE,156,1.0,2.0,91,0.00,,,0.00,Wunderground v.1.15,2013-09-02 00:45:00,
2013-09-01 20:55:00,73.0,70.2,29.84,SSE,152,0.0,1.0,91,0.00,,,0.00,Wunderground v.1.15,2013-09-02 00:55:00,
2013-09-01 21:00:00,72.9,69.8,29.84,SSE,152,0.0,0.0,90,0.00,,,0.00,Wunderground v.1.15,2013-09-02 01:00:00,
2013-09-01 21:05:00,72.8,69.7,29.84,SSE,152,0.0,0.0,90,0.00,,,0.00,Wunderground v.1.15,2013-09-02 01:05:00,
2013-09-01 21:15:00,72.7,69.9,29.83,SSE,152,0.0,1.0,91,0.00,,,0.00,Wunderground v.1.15,2013-09-02 01:15:00,
2013-09-01 21:20:00,72.6,69.8,29.83,SSE,152,0.0,0.0,91,0.00,,,0.00,Wunderground v.1.15,2013-09-02 01:20:00,
2013-09-01 21:25:00,72.5,69.7,29.83,SSE,152,0.0,0.0,91,0.00,,,0.00,Wunderground v.1.15,2013-09-02 01:25:00,
2013-09-01 21:35:00,72.1,69.6,29.83,SSE,152,0.0,0.0,92,0.00,,,0.00,Wunderground v.1.15,2013-09-02 01:35:00,
2013-09-01 21:45:00,71.9,69.4,29.83,SSE,152,0.0,0.0,92,0.00,,,0.00,Wunderground v.1.15,2013-09-02 01:45:00,
2013-09-01 21:55:00,71.4,69.3,29.83,SSE,152,0.0,0.0,93,0.00,,,0.00,Wunderground v.1.15,2013-09-02 01:55:00,
2013-09-01 22:00:00,71.3,69.2,29.83,SSE,152,0.0,0.0,93,0.00,,,0.00,Wunderground v.1.15,2013-09-02 02:00:00,
2013-09-01 22:10:00,70.8,69.0,29.84,SSE,152,0.0,0.0,94,0.00,,,0.00,Wunderground v.1.15,2013-09-02 02:10:00,
2013-09-01 22:20:00,70.7,69.2,29.84,SSE,152,0.0,0.0,95,0.00,,,0.00,Wunderground v.1.15,2013-09-02 02:20:00,
2013-09-01 22:25:00,70.7,69.2,29.84,SSE,152,0.0,0.0,95,0.00,,,0.00,Wunderground v.1.15,2013-09-02 02:25:00,
2013-09-01 22:35:00,70.7,69.2,29.84,SSE,152,0.0,0.0,95,0.00,,,0.00,Wunderground v.1.15,2013-09-02 02:35:00,
2013-09-01 22:40:00,70.7,69.2,29.84,SSE,152,0.0,0.0,95,0.00,,,0.00,Wunderground v.1.15,2013-09-02 02:40:00,
2013-09-01 22:50:00,70.6,69.1,29.84,SSE,152,0.0,0.0,95,0.00,,,0.00,Wunderground v.1.15,2013-09-02 02:50:00,
2013-09-01 23:00:00,70.6,69.1,29.84,SSE,152,0.0,0.0,95,0.00,,,0.00,Wunderground v.1.15,2013-09-02 03:00:00,
2013-09-01 23:05:00,70.6,69.1,29.84,SSE,152,0.0,0.0,95,0.00,,,0.00,Wunderground v.1.15,2013-09-02 03:05:00,
2013-09-01 23:15:00,70.5,69.0,29.84,SSE,152,0.0,0.0,95,0.00,,,0.00,Wunderground v.1.15,2013-09-02 03:15:00,
2013-09-01 23:20:00,70.5,69.3,29.84,SW,225,0.0,0.0,96,0.00,,,0.00,Wunderground v.1.15,2013-09-02 03:20:00,
2013-09-01 23:25:00,70.6,69.4,29.84,SW,223,0.0,0.0,96,0.00,,,0.01,Wunderground v.1.15,2013-09-02 03:25:00,
2013-09-01 23:35:00,70.6,69.1,29.84,South,173,1.0,1.0,95,0.00,,,0.01,Wunderground v.1.15,2013-09-02 03:35:00,
2013-09-01 23:40:00,70.5,69.0,29.85,South,188,1.0,2.0,95,1.01,,,0.06,Wunderground v.1.15,2013-09-02 03:40:00,
2013-09-01 23:45:00,70.3,68.8,29.85,SE,140,1.0,2.0,95,0.24,,,0.10,Wunderground v.1.15,2013-09-02 03:45:00,
2013-09-01 23:55:00,69.9,68.4,29.84,SE,140,0.0,1.0,95,0.10,,,0.11,Wunderground v.1.15,2013-09-02 03:55:00,